{"data":{"norad_id":64349,"epoch":"2026-05-25T03:07:32.780064Z","epoch_age_seconds":74055,"freshness":"FRESH","line1":"1 64349U 25126F   26145.13024051  .00001808  00000+0  15924-3 0  9996","line2":"2 64349  70.0006 201.6528 0003727 266.6412  93.4321 14.98335508 52130","mean_motion":14.98335508,"eccentricity":0.0003727,"inclination_deg":70.0006,"raan_deg":201.6528,"arg_perigee_deg":266.6412,"mean_anomaly_deg":93.4321,"bstar":0.00015924,"rev_number":5213,"period_min":96.106645828753,"perigee_km":569.44852741869,"apogee_km":574.62918850321,"semimajor_km":6950.175857961,"source":"CELESTRAK","updated_at":"2026-05-25T13:38:20.401136Z"}}